Weather History for Joplin, MO

Change the Weather History Date:

Tuesday, February 5, 2013

  Actual Average Record
Temperature  
Mean Temperature 43 °F 37 °F  
Max Temperature 61 °F 48 °F 69 °F (1963)
Min Temperature 25 °F 27 °F 1 °F (1979)
Degree Days  
Heating Degree Days 22 28  
Month to date heating degree days 133 141  
Since 1 July heating degree days 2486 2690  
Cooling Degree Days 0 0  
Month to date cooling degree days 0 0  
Year to date cooling degree days 1 0  
Moisture  
Dew Point 31 °F    
Average Humidity 68    
Maximum Humidity 100    
Minimum Humidity 36    
Precipitation  
Precipitation 0.00 in 0.07 in 1.21 in (1964)
Month to date precipitation T 0.33  
Year to date precipitation 2.45 2.36  
Snow  
Snow 0.00 in - - ()
Month to date snowfall 0.0  
Snow Depth 0.00 in    
Sea Level Pressure  
Sea Level Pressure 30.01 in    
Wind  
Wind Speed 4 mph (NNW)    
Max Wind Speed 16 mph    
Max Gust Speed 21 mph    
Visibility 9 miles    
Events      
T = Trace of Precipitation, MM = Missing Value Source: NWS Daily Summary

Daily Weather History Graph

Daily Weather History Graph

Search for Another Location

Airport:

Trip Planner

Search our weather history database for the weather conditions in past years. The results will help you decide how hot, cold, wet, or windy it might be!

Date:

Astronomy

Feb. 05, 2013 Rise Set
Actual Time 7:16 AM CST 5:47 PM CST
Civil Twilight 6:49 AM CST 6:14 PM CST
Nautical Twilight 6:18 AM CST 6:45 PM CST
Astronomical Twilight 5:48 AM CST 7:16 PM CST
Moon 2:57 AM CST (2/5) 1:08 PM CST (2/5)
Length of Visible Light 11h 24m
Length of Day
10h 30m
Waning Crescent, 26% of the Moon is Illuminated
Feb 5
Waning Crescent
Feb 10
New
Feb 17
First Quarter
Feb 25
Full
Mar 4
Last Quarter

Hourly Weather History & Observations

Time (CST) Temp. Windchill Dew Point Humidity Pressure Visibility Wind Dir Wind Speed Gust Speed Precip Events Conditions
12:53 AM 32.0 °F - 28.9 °F 88% 29.97 in 10.0 mi Calm Calm - N/A   Clear
1:53 AM 28.9 °F 25.2 °F 27.0 °F 92% 29.94 in 8.0 mi ESE 3.5 mph - N/A   Clear
2:53 AM 28.9 °F - 27.0 °F 92% 29.94 in 6.0 mi Calm Calm - N/A   Clear
3:53 AM 26.1 °F - 25.0 °F 96% 29.96 in 2.0 mi Calm Calm - N/A   Clear
4:08 AM 26.6 °F - 26.6 °F 100% 29.95 in 4.0 mi Calm Calm - N/A   Clear
4:53 AM 28.0 °F 24.2 °F 26.1 °F 92% 29.95 in 6.0 mi East 3.5 mph - N/A   Clear
5:53 AM 27.0 °F - 26.1 °F 96% 29.96 in 6.0 mi Calm Calm - N/A   Clear
6:53 AM 28.0 °F - 27.0 °F 96% 29.96 in 8.0 mi Calm Calm - N/A   Clear
7:53 AM 30.0 °F - 28.0 °F 92% 29.99 in 10.0 mi Calm Calm - N/A   Clear
8:53 AM 37.0 °F - 33.1 °F 86% 30.01 in 9.0 mi Calm Calm - N/A   Clear
9:53 AM 50.0 °F - 37.0 °F 61% 30.01 in 10.0 mi SW 9.2 mph - N/A   Clear
10:53 AM 55.0 °F - 36.0 °F 49% 30.02 in 10.0 mi WSW 9.2 mph - N/A   Clear
11:53 AM 55.9 °F - 34.0 °F 44% 30.02 in 10.0 mi West 15.0 mph - N/A   Clear
12:53 PM 59.0 °F - 33.1 °F 38% 30.01 in 10.0 mi West 12.7 mph 19.6 mph N/A   Clear
1:53 PM 59.0 °F - 33.1 °F 38% 30.00 in 10.0 mi WNW 11.5 mph - N/A   Clear
2:53 PM 60.1 °F - 33.1 °F 36% 30.01 in 10.0 mi NNW 10.4 mph - N/A   Clear
3:53 PM 59.0 °F - 32.0 °F 36% 30.00 in 10.0 mi North - - N/A   Clear
4:53 PM 57.9 °F - 32.0 °F 37% 30.01 in 10.0 mi Calm Calm - N/A   Clear
5:53 PM 53.1 °F - 32.0 °F 45% 30.02 in 10.0 mi Calm Calm - N/A   Clear
6:53 PM 50.0 °F - 33.1 °F 52% 30.04 in 10.0 mi Calm Calm - N/A   Clear
7:53 PM 44.1 °F - 33.1 °F 65% 30.06 in 10.0 mi Calm Calm - N/A   Clear
8:53 PM 41.0 °F - 32.0 °F 70% 30.08 in 10.0 mi Calm Calm - N/A   Clear
9:53 PM 37.0 °F 34.5 °F 30.9 °F 79% 30.08 in 10.0 mi NE 3.5 mph - N/A   Clear
10:53 PM 39.9 °F 35.8 °F 30.9 °F 70% 30.08 in 10.0 mi ENE 5.8 mph - N/A   Clear
11:53 PM 41.0 °F 38.0 °F 30.0 °F 65% 30.08 in 10.0 mi East 4.6 mph - N/A   Clear